Home   Weather   Ostrava   Past weeks
Flag for Czech Republic

Past Weather in Ostrava, Czech Republic — Yesterday and Last 2 Weeks

Now
57 °F

Sprinkles. Overcast.


Feels Like: 56 °F
Forecast: 55 / 52 °F
Wind: 6 mph from Southwest

Location: Ostrava / Mosnov

Current Time: May 22, 2019 at 7:47:57 am

Latest Report: May 22, 2019 at 6:00 am


Visibility: 2 mi

Pressure: 29.65 "Hg

Humidity: 97%

Dew Point: 56 °F

Location of OstravaLocation

Past Weather in Ostrava — Graph

°F

Ostrava Temperature Yesterday

Maximum temperature yesterday: 69 °F (at 3:00 pm)
Minimum temperature yesterday: 49 °F (at 5:00 am)
Average temperature yesterday: 59 °F

High & Low Weather Summary for the Past Weeks

 TemperatureHumidityPressure
High73 °F (May 19, 2:00 pm)100% (May 11, 4:00 am)30.48 "Hg (May 11, 4:00 am)
Low31 °F (May 8, 5:00 am)32% (May 8, 2:00 pm)29.59 "Hg (May 20, 6:00 am)
Average52 °F81%29.93 "Hg
* Reported May 7 6:00 am — May 22 6:00 am, Ostrava. Weather by CustomWeather, © 2019

Note: Actual official high and low records may vary slightly from our data, if they occured in-between our weather recording intervals... More about our weather records

Advertising

Ostrava Weather History for the Previous 24 Hours

Scroll right to see more
 ConditionsComfort  
Time TempWeatherWind HumidityBarometerVisibility
6:00 am
Wed, May 22
57 °FSprinkles. Overcast.6 mph97%29.65 "Hg2 mi
5:00 am57 °FLight rain. Overcast.7 mph98%29.65 "Hg7 mi
4:00 am57 °FOvercast.7 mph98%29.65 "Hg7 mi
3:00 am56 °FOvercast.7 mph98%29.65 "Hg7 mi
2:00 am56 °FOvercast.8 mph98%29.66 "Hg7 mi
1:00 am57 °FOvercast.7 mph97%29.66 "Hg7 mi
12:00 am57 °FLight rain. Overcast.8 mph95%29.67 "Hg6 mi
11:00 pm
Tue, May 21
57 °FRain. Low clouds.6 mph99%29.70 "Hg4 mi
10:00 pm59 °FSprinkles. Overcast.8 mph81%29.67 "Hg8 mi
9:00 pm61 °FLight rain. Overcast.8 mph74%29.67 "Hg12 mi
8:00 pm62 °FOvercast.8 mph71%29.65 "Hg22 mi
7:00 pm63 °FOvercast.8 mph66%29.65 "Hg22 mi
6:00 pm65 °FOvercast.8 mph65%29.65 "Hg22 mi
5:00 pm66 °FPartly sunny.9 mph57%29.64 "Hg22 mi
4:00 pm66 °FPartly sunny.8 mph59%29.65 "Hg25 mi
3:00 pm69 °FPartly sunny.8 mph56%29.65 "Hg28 mi
2:00 pm67 °FPartly sunny.8 mph63%29.65 "Hg28 mi
1:00 pm67 °FPartly sunny.6 mph58%29.66 "Hg28 mi
12:00 pm66 °FPartly sunny.5 mph55%29.65 "Hg25 mi
11:00 am64 °FPartly sunny.3 mph64%29.67 "Hg25 mi
10:00 am63 °FPartly sunny.N/A65%29.67 "Hg25 mi
9:00 am60 °FPartly sunny.N/A68%29.67 "Hg25 mi
8:00 am58 °FPartly sunny.N/A78%29.67 "Hg22 mi
7:00 am52 °FPartly sunny.N/A94%29.68 "Hg12 mi
Weather by CustomWeather, © 2019

See weather overview